Tracking 17780 objects as of 28-July-2016
HD Live streaming from Space Station
objects crossing your sky now

MOZHAYETS

Track MOZHAYETS now!
10-day predictions
MOZHAYETS is classified as:


NORAD ID: 27560
Int'l Code: 2002-054B
Perigee: 708.4 km
Apogee: 708.4 km
Inclination: 98.2 °
Period: 98.8 minutes
Semi major axis: 7079 km
RCS: 1.03 m2 (large)
Launch date: November 28, 2002
Source: Commonwealth of Independent States (former USSR) (CIS)
Launch site: PLESETSK MISSILE AND SPACE COMPLEX (PKMTR)
Your satellite tracking list
Your tracking list is empty





NASA's NSSDC Master Catalog

Two Line Element Set (TLE):
1 27560U 02054B   16210.34524375  .00000068  00000-0  24886-4 0  9990
2 27560  98.1633 344.1689 0041875  39.7924  12.4969 14.57514296724824
Source of the keplerian elements: AFSPC

N2YO: 1141